{"data":{"norad_id":64619,"epoch":"2026-09-20T09:38:22.558272Z","epoch_age_seconds":140228,"freshness":"FRESH","line1":"1 64619U 25137AB  26263.40164998  .00012085  00000+0  36818-3 0  9998","line2":"2 64619  53.1582 148.1573 0001694  84.0591 276.0605 15.34404531 70584","mean_motion":15.34404531,"eccentricity":0.0001694,"inclination_deg":53.1582,"raan_deg":148.1573,"arg_perigee_deg":84.0591,"mean_anomaly_deg":276.0605,"bstar":0.00036818,"rev_number":7058,"period_min":93.847480954812,"perigee_km":461.53093709801,"apogee_km":463.84860920875,"semimajor_km":6840.8267731534,"source":"CELESTRAK","updated_at":"2026-09-21T09:00:35.396335Z"}}